Waarnemingen

Advertentie
Mijn weer
Bierset/Liege, België (6478): temperatuur & dauwpunt: 09.01.2021 22:00:00 - 15.01.2021 22:00:00 (CET)Bierset/Liege, België (6478): windsnelheid & windstoten: 09.01.2021 22:00:00 - 15.01.2021 22:00:00 (CET)Bierset/Liege, België (6478): windrichting: 09.01.2021 22:00:00 - 15.01.2021 22:00:00 (CET)Bierset/Liege, België (6478): luchtdruk: 09.01.2021 22:00:00 - 15.01.2021 22:00:00 (CET)Bierset/Liege, België (6478): zicht: 09.01.2021 22:00:00 - 15.01.2021 22:00:00 (CET)
Datum & Tijd tt [°C] td [°C] ff [km/u] ff [kn] fx [km/u] fx [kn] dd ppp [hPa] vv [km]
15.01.2021 22:00:00 -0,4 -2,1 4 2 - - - 1031,4 10
15.01.2021 21:00:00 -0,5 -1,6 5 3 7 4 NW 1031,2 8
15.01.2021 20:00:00 -0,5 -1,5 4 2 14 8 NW 1031,0 7
15.01.2021 19:00:00 -0,3 -1,7 4 2 - - - 1030,7 10
15.01.2021 18:00:00 -0,3 -1,3 4 2 7 4 NNW 1030,4 10
15.01.2021 17:00:00 -0,3 -1,4 5 3 14 8 N 1030,1 10
15.01.2021 16:00:00 0,0 -1,6 9 5 - - N 1029,8 10
15.01.2021 15:00:00 -0,1 -1,5 11 6 18 10 N 1029,4 9
15.01.2021 14:00:00 -0,4 -1,7 13 7 18 10 N 1029,4 7
15.01.2021 13:00:00 -0,4 -1,5 13 7 - - N 1029,4 6
15.01.2021 12:00:00 -0,5 -1,9 9 5 18 10 N 1029,2 9
15.01.2021 11:00:00 -0,7 -2,2 9 5 14 8 N 1028,5 10
15.01.2021 10:00:00 -1,0 -2,7 9 5 - - N 1027,6 10
15.01.2021 09:00:00 -1,3 -3,0 11 6 18 10 N 1026,8 10
15.01.2021 08:00:00 -1,3 -2,7 11 6 18 10 NNO 1025,9 10
15.01.2021 07:00:00 -1,3 -2,8 11 6 - - NNO 1025,0 10
15.01.2021 06:00:00 -1,8 -3,6 11 6 22 12 NNO 1024,5 10
15.01.2021 05:00:00 -1,9 -4,0 15 8 22 12 NO 1023,7 10
15.01.2021 04:00:00 -1,9 -3,8 11 6 - - NNO 1023,0 10
15.01.2021 03:00:00 -1,5 -3,9 15 8 36 19 NO 1022,2 10
15.01.2021 02:00:00 -1,0 -3,5 18 10 36 19 NO 1021,2 10
15.01.2021 01:00:00 -0,7 -3,3 22 12 - - NO 1020,3 10
15.01.2021 00:00:00 -0,5 -2,7 21 11 40 21 NO 1019,8 10
14.01.2021 23:00:00 -0,4 -2,5 21 11 29 16 NO 1019,3 10
14.01.2021 22:00:00 0,2 -2,1 18 10 - - ONO 1018,5 10
14.01.2021 21:00:00 0,5 -1,9 15 8 29 16 ONO 1018,0 10
14.01.2021 20:00:00 1,1 -1,9 13 7 25 14 O 1017,4 10
14.01.2021 19:00:00 1,3 -2,1 15 8 - - O 1017,5 10
14.01.2021 18:00:00 1,4 -1,9 13 7 25 14 O 1017,3 10
14.01.2021 17:00:00 1,4 -2,0 11 6 25 14 OZO 1017,5 10
14.01.2021 16:00:00 1,7 -1,5 11 6 - - ZO 1017,5 10
14.01.2021 15:00:00 1,6 -0,4 8 4 32 18 - 1017,9 10
14.01.2021 14:00:00 1,5 -0,3 8 4 32 18 - 1018,0 10
14.01.2021 13:00:00 1,5 -0,7 11 6 - - OZO 1019,1 10
14.01.2021 12:00:00 1,2 -0,5 8 4 40 21 O 1019,6 10
14.01.2021 11:00:00 0,7 -0,6 8 4 11 6 O 1020,2 10
14.01.2021 10:00:00 0,2 -1,1 8 4 - - OZO 1020,0 10
14.01.2021 09:00:00 -0,1 -1,6 8 4 11 6 OZO 1019,4 10
14.01.2021 08:00:00 -0,4 -1,2 8 4 22 12 ZZO 1019,3 10
14.01.2021 07:00:00 -0,4 -1,1 9 5 - - O 1019,4 2,4
14.01.2021 06:00:00 -0,2 -0,9 15 8 25 14 ONO 1019,1 2,0
14.01.2021 05:00:00 1,5 1,0 9 5 14 8 N 1018,7 4,0
14.01.2021 04:00:00 2,1 1,3 8 4 - - WNW 1018,2 6
14.01.2021 03:00:00 2,3 1,6 9 5 18 10 W 1017,9 8
14.01.2021 02:00:00 2,6 1,8 11 6 18 10 W 1017,7 6
14.01.2021 01:00:00 2,7 2,1 11 6 - - W 1017,9 5
14.01.2021 00:00:00 2,8 2,5 11 6 14 8 W 1017,6 3,2
13.01.2021 23:00:00 3,0 2,5 11 6 14 8 W 1017,3 3,8
13.01.2021 22:00:00 3,0 2,5 9 5 - - WNW 1016,9 4,0
13.01.2021 21:00:00 3,1 2,8 11 6 14 8 W 1016,5 3,0
13.01.2021 20:00:00 2,9 2,6 9 5 18 10 W 1016,1 3,5
13.01.2021 19:00:00 3,1 2,5 13 7 - - W 1016,0 7
13.01.2021 18:00:00 3,3 2,7 13 7 29 16 W 1016,0 9
13.01.2021 17:00:00 3,6 2,8 15 8 29 16 W 1016,2 10
13.01.2021 16:00:00 3,8 2,0 16 9 - - WZW 1016,2 10
13.01.2021 15:00:00 4,0 1,1 21 11 32 18 ZW 1016,6 10
13.01.2021 14:00:00 4,5 0,9 22 12 32 18 WZW 1017,2 10
13.01.2021 13:00:00 3,6 0,7 22 12 - - WZW 1018,2 10
13.01.2021 12:00:00 2,3 0,3 24 13 32 18 WZW 1019,1 10
13.01.2021 11:00:00 1,5 0,0 22 12 29 16 ZW 1019,5 10
13.01.2021 10:00:00 0,9 -0,1 18 10 - - WZW 1019,9 8
13.01.2021 09:00:00 0,7 -0,4 18 10 25 14 WZW 1019,7 9
13.01.2021 08:00:00 0,4 -0,6 16 9 22 12 WZW 1019,5 10
13.01.2021 07:00:00 0,4 -0,4 13 7 - - WZW 1019,6 10
13.01.2021 06:00:00 0,3 -0,4 16 9 22 12 WZW 1019,7 10
13.01.2021 05:00:00 0,3 -0,5 13 7 22 12 WZW 1019,9 10
13.01.2021 04:00:00 -0,3 -0,8 13 7 - - WZW 1019,8 10
13.01.2021 03:00:00 0,0 -0,6 13 7 14 8 ZW 1019,4 9
13.01.2021 02:00:00 -0,4 -0,9 11 6 14 8 WZW 1019,4 11
13.01.2021 01:00:00 0,5 -0,4 11 6 - - WZW 1019,2 10
13.01.2021 00:00:00 0,0 -0,7 11 6 14 8 W 1018,9 10
12.01.2021 23:00:00 0,6 -0,3 11 6 18 10 W 1018,2 10
12.01.2021 22:00:00 1,8 0,4 13 7 - - W 1017,5 10
12.01.2021 21:00:00 2,2 -0,6 9 5 18 10 WNW 1016,7 10
12.01.2021 20:00:00 1,6 -1,2 11 6 18 10 W 1015,9 10
12.01.2021 19:00:00 1,2 -1,0 9 5 - - W 1015,1 10
12.01.2021 18:00:00 2,5 -1,3 11 6 22 12 WNW 1014,4 30
12.01.2021 17:00:00 3,6 0,8 13 7 29 16 NW 1013,3 10
12.01.2021 16:00:00 4,5 2,6 16 9 - - NW 1011,9 10
12.01.2021 15:00:00 5,5 3,2 16 9 29 16 NW 1010,8 10
12.01.2021 14:00:00 5,9 4,6 13 7 32 18 - 1009,8 10
12.01.2021 13:00:00 6,0 5,8 14 8 - - NW 1009,2 2,0
12.01.2021 12:00:00 6,5 6,1 14 8 36 19 WNW 1008,9 5
12.01.2021 11:00:00 6,8 6,3 26 14 47 25 W 1008,0 8
12.01.2021 10:00:00 6,3 5,6 31 17 - - WZW 1007,3 9
12.01.2021 09:00:00 6,0 5,1 34 18 47 25 ZW 1007,2 10
12.01.2021 08:00:00 5,8 5,0 34 18 50 27 ZW 1007,6 10
12.01.2021 07:00:00 5,7 4,8 35 19 - - ZW 1008,0 9
12.01.2021 06:00:00 5,5 4,7 34 18 47 25 ZW 1008,7 10
12.01.2021 05:00:00 5,2 4,4 35 19 54 29 ZW 1009,5 10
12.01.2021 04:00:00 4,7 3,9 35 19 - - ZW 1010,6 8
12.01.2021 03:00:00 4,4 3,7 34 18 47 25 ZW 1011,7 6
12.01.2021 02:00:00 3,8 3,0 31 17 47 25 ZZW 1012,6 4,7
12.01.2021 01:00:00 3,7 3,0 29 16 - - ZW 1013,7 7
12.01.2021 00:00:00 3,7 2,8 29 16 47 25 ZW 1014,5 4,4
11.01.2021 23:00:00 3,8 2,3 29 16 43 23 ZW 1015,3 10
11.01.2021 22:00:00 3,6 1,9 29 16 - - ZZW 1015,5 10
11.01.2021 21:00:00 3,5 1,7 29 16 43 23 ZW 1016,5 10
11.01.2021 20:00:00 3,2 1,3 28 15 43 23 ZZW 1016,9 10
11.01.2021 19:00:00 2,8 1,0 28 15 - - ZZW 1017,7 10
11.01.2021 18:00:00 2,6 0,8 28 15 40 21 ZZW 1017,9 10
11.01.2021 17:00:00 2,0 0,1 25 14 32 18 Z 1018,3 15
11.01.2021 16:00:00 2,0 0,3 24 13 - - ZZW 1018,9 10
11.01.2021 15:00:00 1,9 0,4 28 15 36 19 ZZW 1019,5 6
11.01.2021 14:00:00 1,8 0,2 21 11 40 21 ZZW 1020,1 10
11.01.2021 13:00:00 0,9 -0,6 22 12 - - ZZW 1021,0 8
11.01.2021 12:00:00 0,4 -1,3 21 11 40 21 Z 1022,1 10
11.01.2021 11:00:00 0,1 -1,6 18 10 29 16 Z 1022,6 10
11.01.2021 10:00:00 0,0 -1,5 21 11 - - ZZW 1022,6 8
11.01.2021 09:00:00 -0,4 -2,0 21 11 29 16 ZZW 1023,0 7
11.01.2021 08:00:00 -0,7 -2,5 15 8 25 14 ZW 1023,5 10
11.01.2021 07:00:00 -0,9 -3,2 16 9 - - ZZW 1023,5 10
11.01.2021 06:00:00 -0,7 -2,7 13 7 22 12 ZW 1023,7 10
11.01.2021 05:00:00 -0,7 -1,9 9 5 14 8 ZZW 1023,8 7
11.01.2021 04:00:00 -0,3 -1,2 11 6 - - ZW 1024,2 4,2
11.01.2021 03:00:00 -0,4 -1,5 13 7 22 12 ZZW 1024,3 4,0
11.01.2021 02:00:00 -0,6 -1,6 11 6 25 14 ZW 1024,4 6
11.01.2021 01:00:00 -0,5 -2,1 13 7 - - ZZW 1024,7 8
11.01.2021 00:00:00 -0,5 -2,7 9 5 22 12 ZZW 1025,0 9
10.01.2021 23:00:00 -0,4 -1,8 13 7 22 12 Z 1024,8 6
10.01.2021 22:00:00 0,3 -2,7 13 7 - - ZZW 1025,1 7
10.01.2021 21:00:00 0,0 -1,7 11 6 25 14 ZZW 1025,1 7
10.01.2021 20:00:00 0,1 -1,5 7 4 22 12 Z 1025,2 8
10.01.2021 19:00:00 0,2 -1,3 9 5 - - ZZW 1025,2 10
10.01.2021 18:00:00 0,8 -1,0 11 6 11 6 ZW 1024,9 10
10.01.2021 17:00:00 1,8 -1,0 8 4 11 6 ZW 1025,3 10
10.01.2021 16:00:00 2,5 -0,5 8 4 - - WZW 1025,1 10
10.01.2021 15:00:00 3,1 -1,2 5 3 11 6 WZW 1025,0 10
10.01.2021 14:00:00 3,4 -0,4 9 5 11 6 ZW 1024,8 10
10.01.2021 13:00:00 2,4 0,9 5 3 - - ZZO 1025,5 9
10.01.2021 12:00:00 1,7 0,4 8 4 11 6 ZZO 1026,0 6
10.01.2021 11:00:00 1,0 -0,4 5 3 11 6 ZZO 1026,3 4,0
10.01.2021 10:00:00 -0,1 -1,0 2 1 - - - 1026,2 2,2
10.01.2021 09:00:00 -0,7 -1,2 9 5 14 8 ZZO 1025,6 0,3
10.01.2021 08:00:00 -0,4 -0,9 5 3 22 12 Z 1025,5 0,3
10.01.2021 07:00:00 -0,6 -0,9 4 2 - - - 1025,6 0,9
10.01.2021 06:00:00 -0,6 -1,2 5 3 18 10 ZW 1025,8 2,0
10.01.2021 05:00:00 -0,7 -1,2 4 2 11 6 - 1025,8 1,5
10.01.2021 04:00:00 -0,7 -0,9 5 3 - - WZW 1026,1 2,0
10.01.2021 03:00:00 -0,6 -1,0 4 2 7 4 - 1026,2 1,3
10.01.2021 02:00:00 -0,7 -1,0 2 1 7 4 W 1026,1 1,2
10.01.2021 01:00:00 -0,5 -0,9 5 3 - - ZW 1026,1 1,8
10.01.2021 00:00:00 -0,8 -1,0 5 3 11 6 ZW 1026,3 1,1
09.01.2021 23:00:00 -0,4 -0,6 8 4 11 6 WZW 1026,4 0,3
09.01.2021 22:00:00 -0,4 -0,6 4 2 - - - 1026,3 0,5

tt = temperatuur
td = dauwpunt
ff = windsnelheid
fx = windstoten
dd = windrichting
ppp = luchtdruk
vv = zicht

Weerstations in de omgeving